This demonstration page uses our WeatherBlox Daily Observations layout. Learn more.

Left ArrowRight Arrow

41.86663, -103.66717

Hourly Observations for February 23, 2015

Temp ( °F °C ) Dew Point ( °F °C ) Humidity (%) Winds ( mph kmh ) Pressure ( in mb ) Visibility ( mi km ) Precip ( " mm )
12:53 am 00:53 Partly Cloudy 14 -10 9 -12.8 80 80 SSE 6 9 30.66 1038 10 16.0934 N/A
1:53 am 01:53 Clear 12 -11.1 9 -12.8 87 87 SE 6 9 30.66 1038 10 16.0934 N/A
2:53 am 02:53 Clear 8 -13.3 5 -15 87 87 ESE 3 6 30.65 1038 10 16.0934 N/A
3:53 am 03:53 Clear 6 -14.4 2 -16.7 83 83 E 5 7 30.64 1038 10 16.0934 N/A
4:53 am 04:53 Clear 8 -13.3 3 -16.1 80 80 N N/A 30.62 1037 10 16.0934 N/A
5:53 am 05:53 Clear 6 -14.4 1 -17.2 79 79 N N/A 30.61 1037 10 16.0934 N/A
6:53 am 06:53 Sunny 6 -14.4 1 -17.2 79 79 N N/A 30.59 1036 10 16.0934 N/A
7:53 am 07:53 Sunny 10 -12.2 7 -13.9 87 87 N N/A 30.59 1036 10 16.0934 N/A
8:53 am 08:53 Sunny 14 -10 9 -12.8 80 80 N N/A 30.56 1035 9 14.48406 N/A
9:53 am 09:53 Sunny 19 -7.2 9 -12.8 65 65 SW 8 13 30.52 1033 10 16.0934 N/A
10:53 am 10:53 Sunny 23 -5 8 -13.3 53 53 SSW 13 20 30.47 1032 10 16.0934 N/A
11:53 am 11:53 Sunny 24 -4.4 9 -12.8 52 52 SSW 15 24 30.44 1031 10 16.0934 N/A
12:53 pm 12:53 Sunny 27 -2.8 10 -12.2 49 49 SSW 12 19 30.39 1029 10 16.0934 N/A
1:53 pm 13:53 Sunny 28 -2.2 9 -12.8 44 44 SSW 12 19 30.36 1028 10 16.0934 N/A
2:53 pm 14:53 Sunny 28 -2.2 10 -12.2 47 47 SW 10 17 30.35 1028 10 16.0934 N/A
3:53 pm 15:53 Sunny 29 -1.7 11 -11.7 47 47 SW 10 17 30.31 1027 10 16.0934 N/A
4:53 pm 16:53 Sunny 28 -2.2 12 -11.1 51 51 SSW 8 13 30.29 1026 10 16.0934 N/A
5:53 pm 17:53 Clear 22 -5.6 12 -11.1 66 66 S 6 9 30.3 1026 10 16.0934 N/A
6:53 pm 18:53 Clear 21 -6.1 12 -11.1 68 68 WSW 5 7 30.27 1025 10 16.0934 N/A
7:53 pm 19:53 Clear 20 -6.7 12 -11.1 71 71 NNW 3 6 30.26 1025 10 16.0934 N/A
8:53 pm 20:53 Clear 19 -7.2 14 -10 81 81 NW 10 17 30.25 1024 10 16.0934 N/A
9:53 pm 21:53 Clear 19 -7.2 12 -11.1 74 74 WNW 7 11 30.25 1025 10 16.0934 N/A
10:53 pm 22:53 Clear 19 -7.2 12 -11.1 74 74 WNW 10 17 30.24 1024 10 16.0934 N/A
11:53 pm 23:53 Clear 21 -6.1 12 -11.1 68 68 WNW 14 22 30.24 1024 10 16.0934 N/A

Powered by AerisWeather